Location: Morlupo
(42.1333°N, 12.5000°E)
Time: 16:13:21
(UTC+00:00)

CSL-04 Debris - Pass Details

Date: 18 September 2020
Orbit: 827 x 847 km, 98.9° (Epoch: 25 October)

Event Time Altitude Azimuth Distance (km) Brightness Sun altitude
Rises 18:14:18 0° 170° (S) 3,358 7.1 -11.9°
Reaches altitude 10° 18:16:39 10° 172° (S) 2,427 6.4 -12.4°
Maximum altitude 18:22:00 73° 257° (WSW) 868 4.4 -13.3°
Drops below altitude 10° 18:27:24 10° 342° (NNW) 2,440 7.1 -14.3°
Sets 18:29:47 0° 345° (NNW) 3,378 7.8 -14.7°
